Location: Newark
(45.0242°N, 16.0939°E)
Time: 21:00:45
(UTC+00:00)

Envisat - Pass Details

Date: 24 September 2019
Orbit: 764 x 766 km, 98.1° (Epoch: 13 October)

Event Time Altitude Azimuth Distance (km) Brightness Sun altitude
Rises 18:35:07 0° 219° (SW) 3,221 6.5 -19.1°
Reaches altitude 10° 18:38:54 10° 248° (WSW) 2,302 6.1 -19.7°
Maximum altitude 18:41:00 12° 273° (W) 2,137 6.3 -20.0°
Drops below altitude 10° 18:43:06 10° 297° (WNW) 2,309 6.7 -20.4°
Sets 18:46:56 0° 327° (NNW) 3,242 7.1 -21.0°
